TimePST,TemperatureF,Dew PointF,Humidity,Sea Level PressureIn,VisibilityMPH,Wind Direction,Wind SpeedMPH,Gust SpeedMPH,PrecipitationIn,Events,Conditions,WindDirDegrees,DateUTC
12:15 AM,42.8,39.2,87,29.77,10.0,NNW,3.5,-,N/A,,Overcast,330,2014-02-28 08:15:00
12:35 AM,42.8,39.2,87,29.77,10.0,NNE,4.6,-,N/A,,Overcast,20,2014-02-28 08:35:00
12:55 AM,42.8,39.2,87,29.77,10.0,NNE,4.6,-,N/A,,Overcast,20,2014-02-28 08:55:00
1:15 AM,44.6,39.2,81,29.77,10.0,NE,4.6,-,N/A,,Overcast,40,2014-02-28 09:15:00
1:35 AM,44.6,39.2,81,29.77,10.0,NE,4.6,-,N/A,,Overcast,50,2014-02-28 09:35:00
1:55 AM,44.6,39.2,81,29.76,10.0,NNE,6.9,-,N/A,,Overcast,20,2014-02-28 09:55:00
2:15 AM,44.6,39.2,81,29.76,10.0,North,5.8,-,N/A,,Overcast,10,2014-02-28 10:15:00
2:35 AM,44.6,39.2,81,29.75,10.0,NNE,5.8,-,N/A,,Overcast,20,2014-02-28 10:35:00
2:55 AM,44.6,37.4,76,29.75,10.0,North,4.6,-,N/A,,Overcast,10,2014-02-28 10:55:00
3:15 AM,42.8,37.4,81,29.73,10.0,North,5.8,-,N/A,,Overcast,350,2014-02-28 11:15:00
3:35 AM,42.8,37.4,81,29.73,10.0,North,5.8,-,N/A,,Overcast,360,2014-02-28 11:35:00
3:55 AM,42.8,37.4,81,29.72,10.0,North,3.5,-,N/A,,Overcast,350,2014-02-28 11:55:00
4:15 AM,39.2,35.6,87,29.72,10.0,NNW,4.6,-,N/A,,Mostly Cloudy,330,2014-02-28 12:15:00
4:35 AM,39.2,37.4,93,29.72,10.0,NW,3.5,-,N/A,,Mostly Cloudy,310,2014-02-28 12:35:00
4:55 AM,39.2,37.4,93,29.71,10.0,Calm,Calm,-,N/A,,Mostly Cloudy,0,2014-02-28 12:55:00
5:15 AM,39.2,35.6,87,29.70,10.0,North,4.6,-,N/A,,Overcast,350,2014-02-28 13:15:00
5:35 AM,39.2,37.4,93,29.70,10.0,NNW,5.8,-,N/A,,Mostly Cloudy,330,2014-02-28 13:35:00
5:55 AM,37.4,35.6,93,29.69,10.0,NNW,6.9,-,N/A,,Partly Cloudy,330,2014-02-28 13:55:00
6:15 AM,37.4,35.6,93,29.69,7.0,NW,5.8,-,N/A,,Clear,320,2014-02-28 14:15:00
6:35 AM,37.4,33.8,87,29.69,2.0,NW,5.8,-,N/A,,Clear,320,2014-02-28 14:35:00
6:55 AM,37.4,33.8,87,29.69,2.0,NNW,5.8,-,N/A,,Clear,330,2014-02-28 14:55:00
7:15 AM,37.4,35.6,93,29.68,1.8,Calm,Calm,-,N/A,,Clear,0,2014-02-28 15:15:00
7:35 AM,35.6,33.8,93,29.68,2.5,Calm,Calm,-,N/A,,Clear,0,2014-02-28 15:35:00
7:55 AM,39.2,37.4,93,29.68,3.0,North,5.8,-,N/A,,Clear,360,2014-02-28 15:55:00
8:15 AM,39.2,37.4,93,29.67,3.0,NW,4.6,-,N/A,,Partly Cloudy,310,2014-02-28 16:15:00
8:35 AM,41.0,39.2,93,29.68,10.0,Calm,Calm,-,N/A,,Clear,0,2014-02-28 16:35:00
8:55 AM,42.8,39.2,87,29.68,10.0,NNW,4.6,-,N/A,,Clear,340,2014-02-28 16:55:00
9:15 AM,44.6,39.2,81,29.67,10.0,NNW,4.6,-,N/A,,Clear,330,2014-02-28 17:15:00
9:35 AM,44.6,39.2,81,29.67,10.0,NNW,5.8,-,N/A,,Clear,330,2014-02-28 17:35:00
9:55 AM,46.4,39.2,76,29.67,10.0,Calm,Calm,-,N/A,,Clear,0,2014-02-28 17:55:00
10:15 AM,48.2,39.2,71,29.67,10.0,Calm,Calm,-,N/A,,Clear,0,2014-02-28 18:15:00
10:35 AM,50.0,39.2,66,29.67,10.0,Calm,Calm,-,N/A,,Clear,0,2014-02-28 18:35:00
10:55 AM,51.8,39.2,62,29.66,10.0,Calm,Calm,-,N/A,,Clear,0,2014-02-28 18:55:00
11:15 AM,51.8,39.2,62,29.66,10.0,Calm,Calm,-,N/A,,Clear,0,2014-02-28 19:15:00
11:35 AM,51.8,42.8,71,29.65,10.0,North,6.9,-,N/A,,Clear,360,2014-02-28 19:35:00
11:55 AM,53.6,39.2,58,29.65,10.0,NNW,6.9,-,N/A,,Clear,340,2014-02-28 19:55:00
12:15 PM,53.6,42.8,67,29.64,10.0,WNW,8.1,-,N/A,,Clear,300,2014-02-28 20:15:00
12:35 PM,53.6,42.8,67,29.63,10.0,NW,8.1,-,N/A,,Clear,320,2014-02-28 20:35:00
12:55 PM,55.4,42.8,63,29.62,10.0,NW,11.5,-,N/A,,Clear,310,2014-02-28 20:55:00
1:15 PM,55.4,42.8,63,29.60,10.0,WNW,13.8,-,N/A,,Clear,290,2014-02-28 21:15:00
1:35 PM,55.4,41.0,58,29.59,10.0,WNW,15.0,-,N/A,,Clear,300,2014-02-28 21:35:00
1:55 PM,55.4,39.2,54,29.58,10.0,NW,13.8,-,N/A,,Clear,310,2014-02-28 21:55:00
2:15 PM,55.4,39.2,54,29.58,10.0,WNW,13.8,-,N/A,,Clear,300,2014-02-28 22:15:00
2:35 PM,55.4,37.4,51,29.57,10.0,WNW,15.0,-,N/A,,Clear,300,2014-02-28 22:35:00
2:55 PM,55.4,35.6,47,29.56,10.0,WNW,13.8,-,N/A,,Clear,290,2014-02-28 22:55:00
3:15 PM,55.4,35.6,47,29.56,10.0,WNW,16.1,-,N/A,,Clear,300,2014-02-28 23:15:00
3:35 PM,55.4,35.6,47,29.55,10.0,WNW,16.1,-,N/A,,Clear,300,2014-02-28 23:35:00
3:55 PM,55.4,33.8,44,29.55,10.0,WNW,15.0,-,N/A,,Clear,290,2014-02-28 23:55:00
4:15 PM,53.6,33.8,47,29.54,10.0,WNW,12.7,19.6,N/A,,Clear,300,2014-03-01 00:15:00
4:35 PM,53.6,30.2,41,29.54,10.0,WNW,13.8,-,N/A,,Partly Cloudy,300,2014-03-01 00:35:00
4:55 PM,51.8,30.2,44,29.54,10.0,WNW,15.0,-,N/A,,Mostly Cloudy,300,2014-03-01 00:55:00
5:15 PM,51.8,28.4,41,29.54,10.0,WNW,12.7,-,N/A,,Overcast,300,2014-03-01 01:15:00
5:35 PM,50.0,28.4,43,29.54,10.0,WNW,11.5,-,N/A,,Overcast,300,2014-03-01 01:35:00
5:55 PM,48.2,28.4,46,29.53,10.0,WNW,12.7,-,N/A,,Overcast,300,2014-03-01 01:55:00
6:15 PM,48.2,28.4,46,29.53,10.0,NW,8.1,-,N/A,,Overcast,310,2014-03-01 02:15:00
6:35 PM,48.2,28.4,46,29.53,10.0,Calm,Calm,-,N/A,,Overcast,0,2014-03-01 02:35:00
6:55 PM,48.2,28.4,46,29.53,10.0,Calm,Calm,-,N/A,,Overcast,0,2014-03-01 02:55:00
7:15 PM,46.4,28.4,50,29.53,10.0,Calm,Calm,-,N/A,,Overcast,0,2014-03-01 03:15:00
7:35 PM,46.4,28.4,50,29.54,10.0,Calm,Calm,-,N/A,,Mostly Cloudy,0,2014-03-01 03:35:00
7:55 PM,46.4,28.4,50,29.54,10.0,West,3.5,-,N/A,,Mostly Cloudy,260,2014-03-01 03:55:00
8:15 PM,46.4,28.4,50,29.54,10.0,Calm,Calm,-,N/A,,Overcast,0,2014-03-01 04:15:00
8:35 PM,46.4,28.4,50,29.54,10.0,WSW,3.5,-,N/A,,Overcast,250,2014-03-01 04:35:00
8:55 PM,46.4,28.4,50,29.55,10.0,WSW,3.5,-,N/A,,Overcast,240,2014-03-01 04:55:00
9:15 PM,44.6,28.4,53,29.55,10.0,West,3.5,-,N/A,,Overcast,270,2014-03-01 05:15:00
9:35 PM,44.6,28.4,53,29.56,10.0,Calm,Calm,-,N/A,,Overcast,0,2014-03-01 05:35:00
9:55 PM,44.6,28.4,53,29.56,10.0,WNW,3.5,-,N/A,,Overcast,300,2014-03-01 05:55:00
10:15 PM,44.6,28.4,53,29.56,10.0,Calm,Calm,-,N/A,,Overcast,0,2014-03-01 06:15:00
10:35 PM,44.6,28.4,53,29.56,10.0,Calm,Calm,-,N/A,,Overcast,0,2014-03-01 06:35:00
10:55 PM,42.8,30.2,61,29.56,10.0,North,3.5,-,N/A,,Overcast,10,2014-03-01 06:55:00
11:15 PM,42.8,28.4,57,29.57,10.0,Calm,Calm,-,N/A,,Overcast,0,2014-03-01 07:15:00
11:35 PM,42.8,28.4,57,29.57,10.0,Calm,Calm,-,N/A,,Overcast,0,2014-03-01 07:35:00
11:55 PM,42.8,28.4,57,29.57,10.0,Calm,Calm,-,N/A,,Overcast,0,2014-03-01 07:55:00